Temperature
22 21 21 20 19 19 20 22 24 24 25 24 25 25 25 24 23 21 21 22 22 22 21 21 21 21 20 20 20 20 20 20 19 19 19 19 19 19 19 19 19 19 19 19 19 19 19 19 18
22 21 20 19 19 20 21 23 24 25 25 24 24 24 24 23 21 20 20 22 22 22 21 21 21 21 20 20 20 20 20 19 19 19 19 19 19 19 19 19 19 19 19 19 19 19 19 19 18
22 21 20 19 20 21 23 24 24 25 25 25 24 24 24 22 21 20 21 22 22 22 21 21 21 20 20 20 20 20 20 20 19 19 19 19 19 19 19 19 19 19 19 19 19 19 19 19 18
22 21 20 19 21 23 24 25 26 25 25 24 24 23 23 22 22 22 22 22 22 21 21 21 21 20 20 20 20 20 20 20 19 19 19 19 19 19 19 19 19 19 19 19 19 19 19 19 19
22 21 20 20 22 24 26 27 26 25 25 24 23 22 22 22 23 22 22 22 22 21 21 21 20 20 20 20 20 20 20 20 20 20 20 20 19 19 19 19 19 19 19 19 19 19 19 19 19
22 20 20 21 24 26 26 26 25 25 24 23 22 22 21 21 22 22 22 22 22 21 21 21 21 20 20 20 20 20 20 20 20 20 20 20 19 19 19 19 19 19 19 19 19 19 19 19 19
22 20 21 23 24 25 27 27 25 25 24 23 22 21 20 20 21 21 22 22 21 21 21 21 21 20 20 20 20 20 20 20 20 20 20 19 19 19 19 19 19 19 19 19 19 19 19 19 19
24 20 22 22 24 25 26 26 25 24 23 22 22 21 20 20 21 21 21 21 21 21 21 21 21 21 20 20 20 20 20 20 20 19 19 19 19 19 19 19 19 19 19 19 19 19 19 19 19
25 21 21 22 24 24 26 25 24 23 22 21 21 21 21 20 20 21 21 21 21 21 21 21 21 20 20 20 20 20 20 20 19 19 19 19 19 19 19 18 18 18 18 18 18 19 19 19 19
24 20 22 24 25 25 25 24 24 22 21 20 21 21 21 20 20 20 20 20 20 21 21 21 20 20 20 20 20 20 20 19 19 19 19 19 19 19 18 18 18 18 18 18 18 18 18 18 19
24 23 24 25 26 25 24 23 23 22 20 20 20 21 20 20 20 20 20 21 21 21 21 20 20 20 20 20 19 19 19 19 19 19 19 18 18 18 18 18 18 18 18 18 18 18 18 18 18
25 25 26 26 26 25 23 23 21 20 20 21 21 21 20 20 20 20 20 20 20 20 20 20 20 20 20 19 19 19 19 19 19 18 18 18 18 18 18 18 18 18 18 17 17 17 18 18 18
26 25 26 25 25 24 23 21 20 19 20 20 20 20 20 20 20 20 20 20 20 20 20 20 20 20 19 19 19 19 19 19 18 18 18 18 18 18 18 17 17 17 17 17 17 17 17 17 17
26 26 25 25 24 24 22 20 20 19 19 19 19 19 19 19 19 19 20 19 19 19 19 19 20 19 19 19 19 19 18 18 18 18 18 18 18 18 18 17 17 17 17 17 17 17 17 17 17
26 24 23 23 24 23 22 20 19 19 19 19 19 19 19 19 19 19 19 19 19 20 20 19 19 19 19 19 19 19 18 18 18 18 18 18 18 17 17 17 17 17 17 17 17 17 17 17 17
24 23 22 23 23 23 22 19 19 19 19 18 18 19 19 18 19 19 19 19 20 20 20 19 19 19 19 19 19 19 18 18 18 18 18 18 17 17 17 17 17 17 17 16 16 16 16 16 16
22 22 22 23 23 23 21 19 19 19 19 18 18 18 18 18 18 19 19 19 19 19 19 19 19 19 19 19 19 18 18 18 18 18 18 17 17 17 17 17 16 16 16 16 16 16 16 16 16
22 22 22 22 22 22 20 19 19 18 19 18 18 18 18 18 19 19 19 19 19 19 19 19 19 19 19 19 18 18 18 18 18 18 17 17 17 17 17 16 16 16 16 16 16 16 16 16 15
24 23 23 22 23 21 20 19 19 18 18 18 18 18 18 19 19 19 19 19 19 19 19 19 19 19 19 18 18 18 18 18 17 17 17 17 17 16 16 16 16 16 15 15 15 15 15 15 15
24 23 22 22 23 21 19 19 19 18 18 18 18 18 19 19 19 19 19 19 19 19 19 19 19 19 18 18 18 18 17 17 17 17 17 17 16 16 16 16 15 15 15 15 15 15 15 15 14
24 23 23 22 22 21 20 19 19 18 18 18 19 19 19 19 19 19 19 19 19 19 19 19 19 18 18 18 18 17 17 17 17 16 16 16 16 16 15 15 15 15 15 15 15 14 14 14 14
23 24 24 22 20 18 20 18 18 18 18 18 18 19 19 19 20 19 19 19 19 19 19 19 18 18 18 18 17 17 17 17 16 16 16 16 15 15 15 15 15 15 14 14 14 14 14 14 14
23 24 22 21 19 18 19 18 18 18 18 18 18 19 20 20 20 20 20 20 20 19 19 19 18 18 18 18 17 17 17 16 16 16 15 15 15 15 15 14 14 14 14 14 14 14 13 13 13
24 22 20 18 17 18 19 19 18 18 19 19 19 20 20 20 20 20 20 20 20 19 19 19 18 18 18 18 17 17 17 16 16 15 15 15 15 15 14 14 14 14 14 13 13 13 13 13 13
23 20 19 19 18 18 19 19 18 19 20 20 20 20 20 21 21 21 20 20 20 20 19 19 18 18 18 17 17 17 16 16 16 15 15 15 14 14 14 14 14 13 13 13 13 13 13 12 12
23 21 20 20 19 18 19 19 19 21 21 22 21 21 21 21 21 21 21 21 20 20 19 19 18 18 18 17 17 16 16 16 15 15 15 14 14 14 14 13 13 13 13 13 12 12 12 12 12
23 22 20 19 18 18 18 19 20 21 21 21 21 21 21 21 21 21 21 21 20 20 20 19 19 18 18 17 17 16 16 15 15 15 14 14 14 13 13 13 13 13 12 12 12 12 12 12 12
24 22 19 18 18 19 19 19 19 20 21 21 21 21 22 22 22 22 21 21 21 20 20 19 19 19 18 17 17 16 16 16 15 15 14 14 14 13 13 13 13 13 12 12 12 12 12 11 11
23 22 19 18 18 18 18 19 20 20 20 21 21 22 22 22 22 22 22 21 21 21 20 20 19 19 18 18 17 17 16 16 15 15 14 14 14 13 13 13 13 12 12 12 12 12 11 11 11
23 22 20 19 19 18 18 19 22 21 21 21 22 23 23 23 23 23 22 22 21 21 20 20 19 19 18 18 17 17 16 16 15 15 15 14 14 13 13 13 13 12 12 12 12 12 11 11 11
Wind_Speed
11 9 3 1 2 3 3 5 4 4 2 1 2 5 8 5 4 5 8 18 21 18 19 22 23 23 22 22 22 21 21 20 20 19 19 18 18 17 16 16 15 14 14 13 13 13 13 12 12
9 5 2 2 2 0 5 5 5 5 2 3 5 4 6 7 9 10 9 18 21 18 18 20 23 23 23 22 22 21 21 20 19 19 18 18 17 16 15 15 15 14 13 13 12 12 11 11 11
6 5 2 2 2 4 5 6 7 4 2 2 3 3 4 7 9 6 12 20 17 15 17 21 23 23 22 22 21 21 20 20 19 18 18 17 16 15 14 14 14 13 13 12 11 11 10 10 9
3 2 1 1 6 7 8 9 7 4 2 3 5 5 4 5 6 14 20 19 18 13 16 21 23 22 22 22 21 21 20 20 19 18 17 16 15 14 14 13 12 12 12 11 11 10 9 8 8
3 3 1 3 6 6 8 8 5 5 4 6 8 7 5 6 20 22 20 19 18 14 15 20 22 22 21 21 21 20 19 19 18 17 17 15 15 14 13 12 12 11 11 10 10 9 8 7 6
2 2 1 4 6 5 3 2 7 8 11 10 9 7 4 10 19 19 18 17 16 15 14 19 21 21 21 21 20 20 19 18 18 17 16 15 14 13 13 12 11 11 10 10 9 8 7 6 5
3 1 3 5 5 5 5 4 5 7 9 5 7 7 4 8 14 16 16 16 14 13 13 14 17 18 20 20 19 19 18 18 17 16 15 14 13 13 12 11 11 11 10 10 9 8 7 5 4
5 2 4 4 4 4 4 6 6 7 7 5 4 7 9 11 14 14 15 14 13 10 9 10 13 14 15 17 18 18 17 16 15 14 13 12 12 12 11 10 10 11 10 9 8 8 7 6 5
2 2 4 5 3 3 3 5 5 6 8 4 2 4 9 13 14 14 14 12 11 11 8 7 8 10 12 14 16 16 16 15 14 13 12 10 9 10 10 10 10 10 9 8 8 8 7 7 6
5 4 7 6 3 1 4 5 4 5 8 5 4 6 9 12 13 12 14 14 13 13 11 9 8 9 10 11 12 11 12 12 11 10 10 9 8 8 9 10 11 10 10 9 9 8 8 7 6
6 7 6 4 1 3 5 5 4 7 5 6 9 7 8 10 10 9 11 13 14 14 13 11 9 9 8 7 9 8 8 8 8 9 9 7 6 5 5 6 7 8 8 6 6 7 7 6 6
4 4 3 2 1 3 4 4 6 7 3 7 11 9 7 9 9 8 10 11 11 11 10 10 9 7 7 8 7 7 6 6 6 8 9 7 4 3 3 3 4 5 5 4 4 4 6 5 5
1 2 2 1 5 8 9 8 8 6 6 9 11 8 7 7 7 8 8 9 10 10 9 9 9 8 6 6 5 6 5 6 6 8 8 8 4 3 3 3 3 4 4 4 3 3 3 3 3
3 3 3 3 4 4 8 7 7 5 7 11 10 7 5 5 7 8 8 9 10 10 9 8 9 8 7 5 4 4 6 7 7 7 8 8 6 4 3 2 2 2 3 4 4 4 3 2 1
3 5 6 4 2 2 7 7 6 5 8 10 9 7 6 4 6 8 8 9 11 10 8 8 9 8 8 7 5 6 7 8 6 6 8 8 7 6 4 2 1 1 1 2 2 2 1 1 1
5 4 4 4 3 2 7 4 3 5 9 10 10 9 6 4 5 7 8 8 9 10 8 7 9 9 8 6 5 4 6 7 7 7 7 8 7 7 4 2 1 1 1 2 1 1 1 1 1
4 2 3 4 3 2 6 4 4 4 7 9 8 9 7 6 5 6 7 8 8 8 8 6 7 7 6 6 4 4 5 5 7 7 7 7 7 7 5 2 1 1 2 1 1 1 1 1 2
6 4 2 2 1 4 5 4 5 4 6 7 7 7 7 6 6 6 7 8 8 7 7 7 7 6 6 5 4 3 3 3 4 5 6 7 6 6 5 2 1 2 2 1 1 0 0 1 1
5 3 1 2 2 4 5 5 4 4 4 5 5 6 6 6 6 6 8 9 8 7 6 6 6 5 5 3 3 3 2 2 2 2 5 6 5 5 4 2 2 2 2 0 0 1 0 1 1
1 1 1 0 2 4 5 3 4 5 6 8 8 7 7 6 7 7 7 7 7 7 6 6 6 6 5 3 3 3 3 2 2 1 2 4 4 5 4 3 2 2 2 2 1 1 1 1 1
1 2 4 4 3 5 5 2 2 4 4 5 7 6 6 10 11 10 10 8 8 8 9 9 7 7 5 4 3 3 4 3 3 2 1 0 2 3 4 4 3 2 3 2 1 2 2 0 1
1 2 6 6 5 2 2 0 4 4 4 7 9 9 10 9 10 11 11 10 10 9 8 8 8 7 6 6 5 5 4 3 1 1 0 1 2 1 3 3 3 3 2 2 1 2 2 2 0
4 4 6 5 5 3 3 2 5 3 6 10 13 14 11 11 12 12 11 11 10 10 9 8 8 7 6 6 7 7 5 3 1 2 3 2 3 2 2 3 3 3 2 2 2 1 1 1 2
8 6 5 5 5 3 1 2 5 5 9 11 13 14 13 13 13 11 10 9 9 9 9 8 8 7 6 7 7 7 7 5 4 3 2 2 2 2 3 3 3 2 2 1 1 0 0 0 1
3 5 4 6 5 3 3 2 7 9 9 11 15 16 15 14 13 12 11 11 10 10 10 9 9 7 7 7 7 7 7 6 6 4 3 2 1 1 1 2 1 1 1 1 1 0 1 1 1
3 7 6 3 3 3 2 3 7 7 8 10 13 15 15 14 13 13 13 12 12 12 11 10 10 8 8 7 7 6 6 5 4 4 3 3 2 2 1 1 1 0 1 1 1 1 2 2 2
2 2 6 6 2 1 3 6 7 1 5 9 12 14 15 15 14 14 13 12 13 13 12 12 11 9 8 8 7 6 6 6 5 4 3 2 2 2 2 1 1 1 1 1 1 2 3 3 3
5 4 5 5 4 2 3 4 5 6 7 10 13 15 15 14 14 14 13 13 13 13 11 11 11 10 9 9 8 7 7 6 6 4 4 3 3 3 2 2 2 2 3 3 2 3 4 4 4
2 3 5 4 5 6 4 7 8 12 11 13 15 15 15 16 16 15 13 13 12 11 12 11 11 9 8 9 8 7 7 6 6 5 5 4 4 4 4 4 3 4 4 4 3 4 5 5 5
3 5 7 5 4 5 5 7 7 12 12 12 13 14 15 16 15 14 14 13 12 12 12 12 11 10 9 9 8 8 7 6 6 5 5 5 5 5 5 5 4 5 5 5 5 6 5 5 6
Wind_Direction
162 159 157 128 61 45 264 253 252 270 290 341 43 114 123 104 135 138 127 137 136 141 146 144 141 139 136 133 131 129 127 126 125 124 123 123 122 121 120 119 117 114 112 110 108 107 105 106 106
158 162 143 66 96 58 270 246 255 274 204 98 44 59 90 73 83 102 116 135 135 137 141 143 142 140 139 137 135 134 133 133 132 131 129 128 127 126 125 123 122 119 116 114 111 110 108 108 108
177 177 141 116 174 198 245 251 241 263 217 145 101 47 73 102 107 104 130 134 130 133 137 142 141 141 140 140 139 138 137 137 137 136 135 134 133 132 130 128 126 124 122 120 118 116 113 112 110
159 129 48 135 238 236 231 242 213 174 107 103 117 75 51 86 109 129 134 133 129 129 133 139 140 141 141 142 141 141 141 141 141 141 140 140 140 138 137 135 133 131 129 127 126 125 122 118 113
108 110 50 284 262 257 249 235 190 131 114 105 101 91 57 68 118 129 132 133 131 128 130 136 138 141 143 144 144 144 144 145 145 145 145 145 145 145 143 143 143 141 139 138 137 135 133 129 123
75 106 85 280 286 293 288 180 114 109 113 113 100 92 71 124 126 131 132 131 131 132 132 137 140 142 145 146 146 146 146 147 148 149 150 151 150 149 149 148 148 149 147 148 148 148 149 146 141
152 138 239 271 302 332 2 66 108 119 116 116 123 109 119 141 136 132 129 128 130 133 135 137 142 145 147 147 147 148 148 150 151 152 153 154 153 153 153 153 154 156 157 158 160 162 164 168 173
177 91 312 301 311 315 353 46 72 104 106 111 109 131 157 160 140 130 127 123 127 133 138 139 143 146 146 148 150 151 151 152 154 156 157 158 160 161 163 164 167 167 168 171 173 176 179 189 204
163 72 277 268 265 289 9 52 61 68 108 105 86 123 147 138 127 123 123 123 135 144 152 148 147 149 148 150 155 154 154 156 158 160 161 162 166 171 177 177 180 179 179 181 186 192 197 202 218
150 183 241 236 221 214 58 61 97 87 89 94 92 97 116 122 120 124 137 146 157 161 167 164 159 157 158 160 155 156 156 158 160 165 163 162 170 183 185 189 187 189 191 192 198 205 210 213 222
189 206 239 265 270 98 87 56 64 108 89 129 141 133 122 119 116 131 150 156 163 168 167 165 165 165 166 153 152 156 153 157 165 172 167 163 169 180 179 183 195 198 199 197 206 216 219 218 221
228 257 259 272 316 72 94 102 76 75 143 147 137 134 116 114 126 135 158 154 151 157 161 157 158 156 156 148 153 154 158 164 170 179 174 162 152 142 146 168 178 182 189 191 199 214 222 224 227
315 283 336 50 82 95 95 87 96 82 104 112 115 115 115 122 135 137 151 138 146 147 149 150 139 137 136 135 145 144 149 155 164 164 163 156 144 141 153 164 169 182 192 185 189 208 219 217 221
301 323 346 357 54 66 94 91 87 94 110 114 113 116 116 115 131 131 142 145 147 140 143 140 131 130 126 126 129 138 142 146 148 147 147 142 137 138 142 144 159 177 183 184 184 195 203 206 219
334 342 343 347 21 104 97 64 91 126 119 116 115 118 118 117 142 150 154 152 145 140 135 134 129 125 125 131 130 132 140 140 135 135 139 136 137 138 135 138 145 193 183 168 165 187 159 197 234
351 357 328 322 17 62 91 95 131 144 132 126 135 139 143 149 160 157 149 150 138 135 134 139 136 128 127 128 122 125 131 133 134 137 139 140 142 139 131 135 174 236 132 127 132 136 129 227 254
356 306 285 320 8 69 97 146 178 158 143 138 141 145 149 155 151 154 154 143 137 138 138 132 129 132 128 121 113 114 121 134 145 146 144 143 140 137 134 143 167 112 110 122 148 134 158 235 283
265 255 258 273 321 88 98 137 164 166 154 153 145 141 158 166 164 164 147 137 134 131 128 128 124 125 117 107 97 89 101 127 142 150 158 152 145 141 137 142 129 95 90 76 87 141 204 215 268
233 224 224 255 188 104 115 133 168 181 154 147 152 166 167 168 172 159 147 142 137 132 130 129 130 133 128 117 119 121 131 149 153 164 163 156 151 144 138 121 102 100 104 121 161 139 27 318 354
203 189 178 346 101 106 122 136 175 185 177 172 179 182 166 163 160 157 155 150 150 150 150 147 150 147 141 138 147 146 137 139 143 123 129 147 147 147 146 140 136 124 109 71 58 97 98 335 60
45 161 170 159 97 70 99 36 168 194 169 187 196 186 182 180 170 169 169 172 167 169 171 165 160 151 145 135 112 86 71 59 49 45 38 26 146 153 149 154 150 144 130 123 99 115 128 174 333
193 188 139 127 104 17 81 226 251 198 192 200 201 202 199 192 178 176 174 177 177 178 170 159 154 147 142 130 117 115 115 115 138 156 71 12 50 99 147 151 144 136 126 124 118 114 127 137 281
168 125 101 104 105 67 34 107 282 182 200 203 200 199 201 195 185 180 180 180 178 172 165 160 150 146 142 130 126 118 115 128 122 82 67 39 12 24 90 124 116 113 114 116 93 73 83 151 181
133 86 63 55 68 41 271 159 262 220 207 195 195 197 200 194 188 184 182 175 175 169 163 158 150 149 143 132 129 131 132 128 106 86 77 43 22 22 46 102 104 107 108 111 100 60 7 232 213
108 90 29 6 13 279 257 205 244 228 207 190 185 191 195 189 184 182 178 175 175 170 166 159 153 151 148 140 140 144 143 137 135 136 130 111 72 40 26 85 99 119 179 187 146 109 287 274 260
192 141 158 200 224 281 308 250 256 234 199 185 182 184 186 185 184 182 182 176 175 173 167 161 159 157 159 155 158 157 150 147 154 155 154 155 167 179 170 127 129 220 244 243 201 237 258 255 261
141 166 162 135 116 81 296 295 304 207 166 172 175 177 185 187 185 183 180 176 172 171 171 168 164 163 168 169 164 162 160 160 166 167 157 166 190 188 170 158 172 253 257 256 239 246 260 265 262
149 147 84 108 147 205 263 261 238 218 197 183 178 183 188 183 182 181 178 175 172 172 170 167 166 169 175 173 172 172 172 171 170 164 173 191 203 196 193 221 240 257 264 261 247 250 255 257 263
121 110 113 123 159 157 213 256 221 203 194 190 190 186 184 182 182 180 178 174 169 166 167 170 172 172 176 175 172 167 174 174 171 178 195 198 199 201 207 220 233 250 258 257 246 251 255 253 262
177 173 148 152 221 174 180 257 238 192 194 191 195 191 185 184 183 178 172 168 167 169 171 174 178 179 182 178 173 176 179 177 181 196 205 199 204 214 219 223 232 245 249 247 242 254 257 247 252
Height
1523 1525 1526 1527 1529 1535 1534 1522 1512 1509 1507 1505 1503 1500 1500 1504 1510 1517 1515 1517 1521 1525 1530 1534 1537 1539 1541 1543 1544 1546 1547 1548 1549 1550 1551 1553 1554 1555 1556 1557 1558 1559 1559 1560 1561 1561 1562 1562 1563
1523 1525 1527 1528 1533 1542 1533 1515 1511 1507 1504 1504 1504 1503 1503 1506 1508 1512 1514 1519 1523 1526 1530 1534 1538 1540 1542 1543 1545 1546 1547 1549 1550 1551 1552 1553 1554 1556 1557 1557 1558 1559 1560 1561 1562 1562 1563 1564 1564
1523 1525 1527 1529 1533 1536 1526 1509 1506 1504 1504 1502 1504 1504 1505 1508 1510 1513 1516 1521 1525 1528 1532 1535 1538 1541 1542 1544 1545 1547 1548 1549 1550 1552 1553 1554 1555 1556 1557 1558 1559 1560 1561 1562 1563 1563 1564 1565 1566
1524 1526 1527 1531 1532 1520 1511 1503 1499 1502 1504 1503 1502 1505 1509 1512 1512 1514 1518 1523 1526 1529 1533 1536 1539 1542 1543 1545 1546 1547 1548 1550 1551 1552 1553 1555 1556 1557 1558 1559 1560 1561 1562 1563 1563 1564 1565 1566 1567
1523 1524 1529 1532 1524 1510 1502 1497 1498 1500 1503 1503 1503 1508 1512 1514 1514 1518 1520 1524 1527 1530 1534 1537 1540 1542 1544 1546 1547 1548 1549 1551 1552 1553 1554 1555 1556 1557 1558 1559 1560 1561 1562 1563 1564 1565 1566 1567 1568
1523 1523 1533 1534 1520 1506 1500 1498 1500 1501 1503 1505 1506 1510 1518 1517 1518 1521 1522 1526 1529 1531 1534 1538 1541 1543 1544 1546 1547 1548 1550 1551 1552 1553 1554 1555 1556 1557 1558 1560 1561 1562 1563 1564 1565 1566 1567 1568 1569
1522 1524 1529 1524 1517 1509 1502 1500 1501 1501 1503 1506 1506 1510 1518 1520 1521 1523 1525 1528 1531 1534 1536 1538 1541 1543 1545 1546 1548 1549 1550 1551 1552 1553 1554 1555 1556 1557 1559 1560 1561 1562 1563 1564 1565 1566 1567 1568 1569
1519 1522 1524 1522 1517 1513 1504 1502 1503 1502 1505 1507 1507 1509 1515 1518 1521 1524 1527 1530 1533 1535 1538 1539 1541 1544 1545 1547 1548 1549 1550 1552 1553 1554 1555 1556 1557 1558 1559 1560 1561 1562 1563 1564 1565 1566 1566 1568 1569
1518 1525 1528 1520 1514 1510 1503 1502 1505 1505 1504 1505 1506 1508 1513 1517 1521 1524 1527 1530 1534 1537 1539 1541 1542 1545 1546 1547 1548 1549 1551 1552 1553 1554 1555 1556 1557 1558 1559 1560 1561 1561 1562 1563 1564 1565 1566 1567 1568
1514 1525 1517 1507 1505 1505 1503 1503 1505 1507 1507 1508 1508 1511 1516 1517 1519 1523 1526 1530 1534 1537 1539 1541 1543 1545 1546 1548 1549 1549 1551 1552 1553 1554 1555 1556 1557 1557 1558 1559 1560 1561 1561 1562 1563 1564 1565 1566 1567
1509 1512 1506 1503 1501 1501 1502 1504 1505 1506 1509 1508 1507 1511 1516 1517 1519 1523 1527 1529 1533 1536 1538 1540 1543 1545 1546 1548 1549 1550 1551 1552 1553 1554 1555 1555 1556 1557 1558 1558 1559 1560 1560 1561 1562 1563 1564 1564 1565
1506 1504 1503 1502 1499 1499 1501 1504 1507 1508 1510 1508 1509 1511 1516 1518 1520 1522 1527 1529 1532 1536 1538 1540 1542 1544 1546 1547 1549 1550 1551 1552 1553 1554 1555 1555 1556 1556 1557 1557 1558 1558 1559 1559 1560 1561 1562 1563 1564
1503 1503 1501 1501 1499 1500 1501 1505 1508 1511 1510 1511 1512 1513 1517 1519 1522 1523 1525 1529 1531 1534 1538 1540 1542 1543 1546 1547 1548 1549 1550 1551 1552 1553 1553 1554 1555 1555 1556 1556 1556 1557 1557 1558 1559 1559 1560 1561 1562
1502 1501 1501 1500 1499 1500 1503 1507 1509 1514 1513 1514 1515 1517 1518 1521 1522 1523 1525 1528 1531 1533 1536 1539 1541 1543 1545 1547 1548 1549 1550 1551 1552 1552 1553 1554 1554 1554 1555 1555 1555 1555 1555 1556 1557 1557 1558 1559 1560
1501 1502 1502 1500 1498 1501 1502 1510 1513 1515 1515 1515 1515 1517 1520 1522 1524 1526 1527 1529 1532 1533 1535 1538 1541 1543 1545 1546 1547 1549 1550 1551 1551 1552 1552 1553 1553 1553 1554 1554 1553 1553 1554 1554 1555 1555 1556 1557 1557
1503 1508 1512 1503 1500 1501 1507 1520 1516 1515 1515 1515 1515 1517 1520 1522 1524 1526 1527 1529 1532 1534 1536 1539 1540 1542 1544 1546 1547 1548 1549 1550 1551 1551 1551 1552 1552 1552 1552 1552 1552 1552 1552 1552 1553 1553 1553 1554 1555
1512 1518 1515 1507 1502 1502 1508 1518 1515 1514 1514 1515 1516 1518 1520 1523 1524 1525 1526 1528 1531 1534 1536 1538 1540 1542 1543 1545 1547 1548 1549 1550 1550 1550 1551 1551 1551 1551 1551 1551 1550 1550 1550 1550 1551 1551 1551 1551 1552
1519 1517 1514 1512 1505 1505 1510 1515 1514 1514 1514 1516 1517 1518 1520 1521 1522 1525 1526 1529 1532 1534 1536 1538 1540 1542 1543 1545 1547 1548 1548 1549 1550 1550 1550 1550 1550 1550 1550 1549 1549 1549 1549 1549 1549 1549 1549 1549 1549
1504 1509 1513 1509 1503 1507 1512 1515 1515 1515 1515 1516 1518 1520 1522 1522 1524 1525 1527 1530 1532 1535 1537 1538 1540 1542 1543 1545 1546 1547 1548 1548 1548 1549 1549 1549 1549 1548 1548 1548 1547 1547 1547 1547 1547 1547 1547 1547 1547
1502 1509 1511 1508 1504 1508 1514 1516 1516 1516 1516 1516 1517 1519 1520 1522 1524 1526 1528 1530 1532 1534 1536 1539 1540 1542 1543 1545 1546 1546 1547 1547 1547 1547 1547 1547 1547 1547 1547 1546 1546 1546 1545 1545 1545 1545 1544 1544 1545
1503 1507 1508 1509 1507 1509 1514 1520 1518 1515 1516 1517 1517 1517 1520 1521 1523 1526 1528 1531 1532 1534 1536 1538 1540 1541 1543 1544 1545 1545 1545 1546 1546 1546 1546 1546 1545 1545 1545 1545 1544 1544 1543 1543 1543 1542 1542 1542 1542
1506 1498 1500 1505 1515 1524 1519 1533 1521 1516 1516 1515 1515 1516 1518 1521 1523 1525 1527 1530 1532 1534 1536 1538 1539 1541 1542 1543 1543 1543 1544 1544 1544 1544 1544 1544 1544 1543 1543 1543 1542 1542 1541 1541 1540 1540 1540 1540 1540
1499 1496 1502 1508 1517 1526 1524 1531 1525 1516 1517 1515 1514 1515 1517 1520 1521 1523 1526 1528 1531 1533 1535 1537 1538 1539 1540 1541 1541 1541 1542 1542 1542 1542 1542 1542 1542 1541 1541 1540 1540 1539 1539 1538 1538 1538 1537 1537 1537
1493 1501 1508 1516 1523 1535 1527 1530 1529 1518 1511 1509 1511 1513 1514 1517 1520 1522 1525 1528 1530 1532 1534 1535 1537 1538 1538 1539 1539 1540 1540 1540 1540 1540 1540 1540 1539 1539 1538 1538 1537 1537 1537 1536 1536 1535 1535 1534 1534
1495 1513 1532 1534 1541 1538 1523 1525 1522 1504 1500 1502 1505 1508 1511 1515 1517 1520 1523 1525 1528 1530 1532 1533 1535 1535 1536 1537 1538 1538 1538 1538 1538 1538 1537 1537 1537 1536 1536 1535 1535 1535 1534 1533 1533 1532 1532 1531 1531
1496 1506 1529 1539 1542 1537 1524 1525 1510 1495 1495 1497 1501 1504 1508 1511 1514 1516 1519 1522 1524 1527 1529 1531 1532 1534 1535 1535 1536 1536 1536 1536 1536 1535 1535 1534 1534 1534 1533 1533 1532 1532 1531 1531 1530 1529 1529 1528 1528
1493 1502 1504 1523 1532 1540 1531 1518 1501 1492 1494 1496 1499 1503 1505 1508 1511 1513 1517 1519 1522 1524 1526 1529 1530 1532 1533 1533 1534 1534 1534 1534 1533 1533 1532 1532 1532 1531 1531 1530 1530 1529 1528 1527 1527 1526 1526 1525 1525
1485 1493 1509 1523 1537 1541 1533 1524 1515 1498 1495 1494 1496 1499 1501 1505 1508 1511 1514 1516 1519 1521 1524 1527 1529 1530 1530 1531 1532 1532 1532 1531 1531 1530 1530 1530 1529 1529 1528 1528 1527 1526 1525 1525 1524 1523 1523 1522 1522
1488 1494 1504 1517 1522 1535 1539 1525 1492 1490 1489 1490 1491 1493 1497 1500 1503 1507 1510 1513 1516 1519 1522 1524 1526 1527 1528 1528 1529 1529 1529 1529 1528 1528 1527 1527 1526 1526 1525 1525 1524 1523 1522 1522 1521 1520 1520 1519 1518
1483 1488 1499 1514 1519 1520 1526 1515 1476 1479 1481 1484 1487 1489 1493 1496 1500 1503 1507 1511 1514 1516 1519 1521 1523 1524 1525 1526 1526 1527 1527 1526 1526 1525 1525 1524 1524 1523 1523 1522 1521 1520 1519 1518 1518 1517 1516 1515 1514